Home   Weather   Behbahan   Past weeks

Flag for Iran Past Weather in Behbahan, Iran — Yesterday and Last 2 Weeks

Now
84 °F

Sunny.


Feels Like: 81 °F
Forecast: 67 / 97 °F
Wind: No wind

Location: Gach Saran Du Gunbadan

Current Time: Apr 23, 2017 at 10:12:26 am

Latest Report: Apr 23, 2017 at 9:30 am


Visibility: 10 mi

Pressure: 29.98 "Hg

Humidity: 14%

Dew Point: 30 °F

Location of BehbahanLocation

Past Weather in Behbahan — Graph

°F

Behbahan Temperature Yesterday

Maximum temperature yesterday: 99 °F (at 2:30 pm)
Minimum temperature yesterday: 55 °F (at 6:30 am)
Average temperature yesterday: 79 °F

High & Low Weather Summary for the Past Weeks

 TemperatureHumidityPressure
High99 °F (Apr 13, 4:30 pm)69% (Apr 17, 9:30 pm)30.12 "Hg (Apr 17, 9:30 pm)
Low55 °F (Apr 9, 6:30 am)4% (Apr 22, 2:30 pm)29.86 "Hg (Apr 15, 4:30 pm)
Average78 °F28%30.00 "Hg
* Reported Apr 8 8:30 am — Apr 23 8:30 am, Behbahan, Weather by CustomWeather, © 2017

Note: Actual official high and low records may vary slightly from our data, if they occured in-between our weather recording intervals... More about our weather records

Advertising

Behbahan Weather History for the Previous 24 Hours

Scroll right to see more
 ConditionsComfort  
Time TempWeatherWind HumidityBarometerVisibility
8:30 am
Sun, Apr 23
79 °FSunny.No wind20%29.98 "Hg10 mi
7:30 am66 °FSunny.No wind32%29.95 "Hg10 mi
6:30 am61 °FClear.No wind34%29.92 "Hg10 mi
5:30 am61 °FClear.No wind34%29.92 "Hg10 mi
4:30 am66 °FClear.No wind30%29.92 "Hg10 mi
3:30 am64 °FClear.No wind30%29.92 "Hg10 mi
2:30 am66 °FClear.No wind28%29.92 "Hg10 mi
1:30 am68 °FClear.No wind28%29.95 "Hg10 mi
12:30 am72 °FClear.No wind22%29.95 "Hg10 mi
11:30 pm
Sat, Apr 22
75 °FClear.No wind18%29.95 "Hg10 mi
10:30 pm77 °FClear.No wind18%29.95 "Hg10 mi
9:30 pm81 °FClear.No wind15%29.92 "Hg10 mi
8:30 pm86 °FClear.5 mph11%29.92 "Hg10 mi
7:30 pm90 °FSunny.9 mph9%29.89 "Hg10 mi
6:30 pm93 °FSunny.9 mph8%29.86 "Hg10 mi
5:30 pm95 °FSunny.12 mph7%29.86 "Hg10 mi
4:30 pm97 °FSunny.12 mph7%29.86 "Hg10 mi
3:30 pm99 °FSunny.No wind4%29.86 "Hg10 mi
2:30 pm99 °FSunny.No wind4%29.89 "Hg10 mi
1:30 pm95 °FSunny.No wind5%29.92 "Hg10 mi
12:30 pm95 °FSunny.7 mph5%29.92 "Hg10 mi
11:30 am91 °FSunny.No wind8%29.95 "Hg10 mi
10:30 am86 °FSunny.No wind11%29.95 "Hg10 mi
Weather by CustomWeather, © 2017

See weather overviewHow to use our weather pages